TAM3310 SBSP-SBJV

Flight info

Callsign TAM3310
Flight time 0h 42m
Altitude 32000
Route SOVSI UZ85 RAXIT
Aircraft A319/M-SDE3FGHIRWY/LB1

Departure

Time 2026-05-06 13:37
Airport Congonhas–Deputado Freitas Nobre Airport (SBSP)

Arrival

Time 2026-05-06 14:19
Airport Lauro Carneiro de Loyola Airport (SBJV)
Time Latitude Longitude Altitude Speed Heading
2026-05-06 13:10 -23.62512 -46.65968 2601 ft 0 kts 237°
2026-05-06 13:31 -23.62504 -46.65954 2601 ft 4 kts 238°
2026-05-06 13:31 -23.62493 -46.65930 2601 ft 4 kts 278°
2026-05-06 13:32 -23.62504 -46.65915 2601 ft 4 kts 327°
2026-05-06 13:32 -23.62510 -46.65911 2601 ft 0 kts 327°
2026-05-06 13:34 -23.62508 -46.65912 2601 ft 1 kts 332°
2026-05-06 13:34 -23.62475 -46.65923 2601 ft 10 kts 347°
2026-05-06 13:34 -23.62396 -46.65944 2601 ft 12 kts 342°
2026-05-06 13:34 -23.62319 -46.65994 2600 ft 13 kts 328°
2026-05-06 13:35 -23.62236 -46.66049 2600 ft 15 kts 334°
2026-05-06 13:35 -23.62142 -46.66108 2599 ft 16 kts 327°
2026-05-06 13:35 -23.62039 -46.66104 2589 ft 9 kts 33°
2026-05-06 13:35 -23.62030 -46.66085 2592 ft 0 kts 124°
2026-05-06 13:36 -23.62033 -46.66085 2593 ft 2 kts 150°
2026-05-06 13:36 -23.62121 -46.66025 2595 ft 46 kts 147°
2026-05-06 13:36 -23.62612 -46.65684 2605 ft 118 kts 147°
2026-05-06 13:36 -23.63450 -46.65111 2833 ft 151 kts 147°
2026-05-06 13:37 -23.64370 -46.64517 3418 ft 163 kts 147°
2026-05-06 13:37 -23.65446 -46.63893 3756 ft 191 kts 160°
2026-05-06 13:37 -23.66873 -46.63844 3972 ft 228 kts 185°
2026-05-06 13:37 -23.68544 -46.64065 4480 ft 254 kts 185°
2026-05-06 13:38 -23.70372 -46.64313 5185 ft 272 kts 185°
2026-05-06 13:38 -23.72270 -46.64572 6186 ft 278 kts 185°
2026-05-06 13:38 -23.74190 -46.64915 7192 ft 284 kts 196°
2026-05-06 13:38 -23.75847 -46.66108 8106 ft 294 kts 230°
2026-05-06 13:39 -23.76781 -46.68095 9104 ft 298 kts 252°
2026-05-06 13:39 -23.77465 -46.70240 10137 ft 301 kts 251°
2026-05-06 13:39 -23.78208 -46.72429 10759 ft 319 kts 247°
2026-05-06 13:39 -23.79242 -46.74639 11386 ft 332 kts 239°
2026-05-06 13:40 -23.80501 -46.76778 12240 ft 337 kts 235°
2026-05-06 13:40 -23.81861 -46.78878 13100 ft 341 kts 233°
2026-05-06 13:40 -23.83258 -46.80988 13969 ft 345 kts 233°
2026-05-06 13:40 -23.84657 -46.83131 14724 ft 348 kts 233°
2026-05-06 13:41 -23.86042 -46.85312 15494 ft 351 kts 234°
2026-05-06 13:41 -23.87400 -46.87537 16262 ft 354 kts 238°
2026-05-06 13:41 -23.88460 -46.89972 17012 ft 358 kts 245°
2026-05-06 13:41 -23.89412 -46.92453 17780 ft 360 kts 245°
2026-05-06 13:42 -23.90385 -46.94985 18534 ft 363 kts 245°
2026-05-06 13:42 -23.91370 -46.97540 19208 ft 365 kts 245°
2026-05-06 13:42 -23.92363 -47.00103 19909 ft 367 kts 245°
2026-05-06 13:42 -23.93363 -47.02681 20613 ft 369 kts 245°
2026-05-06 13:43 -23.94373 -47.05281 21319 ft 372 kts 245°
2026-05-06 13:43 -23.95387 -47.07894 22011 ft 374 kts 245°
2026-05-06 13:43 -23.96407 -47.10524 22710 ft 377 kts 246°
2026-05-06 13:43 -23.97430 -47.13168 23400 ft 380 kts 246°
2026-05-06 13:44 -23.98464 -47.15844 24050 ft 382 kts 246°
2026-05-06 13:44 -23.99503 -47.18530 24652 ft 384 kts 245°
2026-05-06 13:44 -24.00532 -47.21193 25277 ft 385 kts 245°
2026-05-06 13:44 -24.01574 -47.23891 25889 ft 386 kts 244°
2026-05-06 13:45 -24.02621 -47.26603 26491 ft 387 kts 244°
2026-05-06 13:45 -24.04717 -47.32041 27649 ft 389 kts 244°
2026-05-06 13:45 -24.05769 -47.34777 28224 ft 391 kts 243°
2026-05-06 13:46 -24.06824 -47.37523 28802 ft 392 kts 243°
2026-05-06 13:46 -24.07886 -47.40285 29352 ft 394 kts 243°
2026-05-06 13:46 -24.08953 -47.43050 29923 ft 395 kts 242°
2026-05-06 13:46 -24.10268 -47.45663 30166 ft 390 kts 231°
2026-05-06 13:47 -24.11980 -47.47881 30218 ft 372 kts 221°
2026-05-06 13:47 -24.13947 -47.49544 30215 ft 353 kts 213°
2026-05-06 13:47 -24.15946 -47.50997 30210 ft 339 kts 212°
2026-05-06 13:47 -24.17912 -47.52382 30212 ft 334 kts 211°
2026-05-06 13:48 -24.21821 -47.55078 30210 ft 334 kts 211°
2026-05-06 13:48 -24.25821 -47.57824 30210 ft 342 kts 211°
2026-05-06 13:49 -24.29941 -47.60421 30206 ft 342 kts 204°
2026-05-06 13:49 -24.34296 -47.62514 30206 ft 341 kts 204°
2026-05-06 13:50 -24.38653 -47.64575 30202 ft 341 kts 204°
2026-05-06 13:50 -24.43005 -47.66643 30199 ft 341 kts 204°
2026-05-06 13:51 -24.47339 -47.68740 30195 ft 340 kts 204°
2026-05-06 13:51 -24.51625 -47.70859 30191 ft 341 kts 204°
2026-05-06 13:52 -24.56010 -47.73023 30198 ft 342 kts 204°
2026-05-06 13:52 -24.60353 -47.75142 30198 ft 340 kts 204°
2026-05-06 13:53 -24.64680 -47.77258 30198 ft 340 kts 204°
2026-05-06 13:53 -24.69003 -47.79390 30198 ft 340 kts 205°
2026-05-06 13:54 -24.73326 -47.81523 30187 ft 340 kts 205°
2026-05-06 13:54 -24.77623 -47.83643 30185 ft 340 kts 205°
2026-05-06 13:55 -24.81939 -47.85774 30185 ft 340 kts 205°
2026-05-06 13:55 -24.86256 -47.87905 30186 ft 339 kts 205°
2026-05-06 13:56 -24.89834 -47.89676 30187 ft 339 kts 205°
2026-05-06 13:56 -24.94137 -47.91806 30186 ft 339 kts 205°
2026-05-06 13:57 -24.98439 -47.93942 29880 ft 337 kts 205°
2026-05-06 13:57 -25.00585 -47.95005 29221 ft 340 kts 205°
2026-05-06 13:57 -25.02755 -47.96080 28519 ft 345 kts 205°
2026-05-06 13:58 -25.04962 -47.97177 27809 ft 349 kts 205°
2026-05-06 13:58 -25.07196 -47.98288 27092 ft 354 kts 205°
2026-05-06 13:58 -25.09459 -47.99410 26368 ft 360 kts 205°
2026-05-06 13:58 -25.11759 -48.00554 25683 ft 364 kts 205°
2026-05-06 13:59 -25.14067 -48.01704 25150 ft 364 kts 205°
2026-05-06 13:59 -25.16377 -48.02856 24634 ft 364 kts 205°
2026-05-06 13:59 -25.18658 -48.03992 24110 ft 364 kts 205°
2026-05-06 13:59 -25.20969 -48.05138 23556 ft 364 kts 205°
2026-05-06 14:00 -25.23272 -48.06277 22996 ft 363 kts 205°
2026-05-06 14:00 -25.25569 -48.07411 22485 ft 360 kts 205°
2026-05-06 14:00 -25.27847 -48.08543 21979 ft 358 kts 205°
2026-05-06 14:00 -25.30110 -48.09670 21466 ft 356 kts 205°
2026-05-06 14:01 -25.32362 -48.10791 20966 ft 354 kts 205°
2026-05-06 14:01 -25.34597 -48.11905 20474 ft 352 kts 205°
2026-05-06 14:01 -25.36825 -48.13019 19989 ft 350 kts 205°
2026-05-06 14:01 -25.39039 -48.14127 19517 ft 349 kts 205°
2026-05-06 14:02 -25.41250 -48.15233 19053 ft 347 kts 205°
2026-05-06 14:02 -25.43447 -48.16334 18599 ft 346 kts 205°
2026-05-06 14:02 -25.45634 -48.17433 18106 ft 345 kts 205°
2026-05-06 14:02 -25.47814 -48.18525 17608 ft 343 kts 205°
2026-05-06 14:03 -25.49987 -48.19609 17124 ft 342 kts 205°
2026-05-06 14:03 -25.52148 -48.20687 16658 ft 341 kts 205°
2026-05-06 14:03 -25.54306 -48.21765 16200 ft 340 kts 205°
2026-05-06 14:03 -25.56456 -48.22840 15755 ft 338 kts 205°
2026-05-06 14:04 -25.58602 -48.23916 15314 ft 337 kts 205°
2026-05-06 14:04 -25.60739 -48.24987 14884 ft 337 kts 205°
2026-05-06 14:04 -25.62845 -48.26040 14461 ft 336 kts 205°
2026-05-06 14:04 -25.64997 -48.27118 14036 ft 335 kts 205°
2026-05-06 14:05 -25.67089 -48.28165 13579 ft 334 kts 205°
2026-05-06 14:05 -25.69197 -48.29218 13132 ft 332 kts 205°
2026-05-06 14:05 -25.71296 -48.30270 12686 ft 330 kts 205°
2026-05-06 14:05 -25.73383 -48.31320 12244 ft 328 kts 205°
2026-05-06 14:06 -25.75457 -48.32363 11807 ft 326 kts 205°
2026-05-06 14:06 -25.77518 -48.33401 11359 ft 324 kts 205°
2026-05-06 14:06 -25.79562 -48.34431 10931 ft 322 kts 205°
2026-05-06 14:06 -25.81605 -48.35457 10490 ft 321 kts 205°
2026-05-06 14:07 -25.83633 -48.36476 10106 ft 317 kts 205°
2026-05-06 14:07 -25.85595 -48.37464 9979 ft 303 kts 205°
2026-05-06 14:07 -25.87491 -48.38421 9693 ft 296 kts 205°
2026-05-06 14:07 -25.89358 -48.39360 9304 ft 294 kts 205°
2026-05-06 14:08 -25.91211 -48.40295 8894 ft 292 kts 205°
2026-05-06 14:08 -25.93055 -48.41225 8476 ft 290 kts 205°
2026-05-06 14:08 -25.94885 -48.42149 8044 ft 288 kts 205°
2026-05-06 14:08 -25.96707 -48.43070 7617 ft 287 kts 205°
2026-05-06 14:09 -25.98521 -48.43984 7185 ft 285 kts 205°
2026-05-06 14:09 -26.00327 -48.44893 6755 ft 284 kts 205°
2026-05-06 14:09 -26.02125 -48.45800 6344 ft 282 kts 205°
2026-05-06 14:09 -26.03905 -48.46699 6124 ft 282 kts 205°
2026-05-06 14:10 -26.05699 -48.47608 5877 ft 283 kts 205°
2026-05-06 14:10 -26.07486 -48.48512 5637 ft 281 kts 206°
2026-05-06 14:10 -26.08760 -48.49156 5463 ft 280 kts 206°
2026-05-06 14:10 -26.09189 -48.49373 5404 ft 280 kts 206°
2026-05-06 14:11 -26.10956 -48.50267 5165 ft 279 kts 206°
2026-05-06 14:11 -26.12726 -48.51164 4924 ft 278 kts 206°
2026-05-06 14:11 -26.14486 -48.52054 4677 ft 277 kts 206°
2026-05-06 14:11 -26.16228 -48.52936 4278 ft 275 kts 205°
2026-05-06 14:12 -26.17962 -48.53815 4033 ft 273 kts 205°
2026-05-06 14:12 -26.19668 -48.54680 4003 ft 261 kts 205°
2026-05-06 14:12 -26.21264 -48.55487 4008 ft 242 kts 206°
2026-05-06 14:12 -26.22745 -48.56236 4009 ft 225 kts 206°
2026-05-06 14:13 -26.24131 -48.56938 4013 ft 216 kts 206°
2026-05-06 14:13 -26.25482 -48.57664 4013 ft 215 kts 213°
2026-05-06 14:13 -26.26677 -48.58659 3923 ft 213 kts 221°
2026-05-06 14:13 -26.27811 -48.59674 3794 ft 206 kts 220°
2026-05-06 14:14 -26.28916 -48.60658 3659 ft 200 kts 220°
2026-05-06 14:14 -26.29990 -48.61613 3528 ft 195 kts 220°
2026-05-06 14:14 -26.31042 -48.62552 3406 ft 193 kts 220°
2026-05-06 14:14 -26.32040 -48.63517 3244 ft 187 kts 232°
2026-05-06 14:15 -26.32498 -48.64816 2992 ft 181 kts 268°
2026-05-06 14:15 -26.32237 -48.66137 2812 ft 173 kts 300°
2026-05-06 14:15 -26.31521 -48.67186 2621 ft 169 kts 310°
2026-05-06 14:15 -26.30789 -48.68197 2410 ft 167 kts 310°
2026-05-06 14:16 -26.30064 -48.69201 2200 ft 165 kts 310°
2026-05-06 14:16 -26.29345 -48.70196 1988 ft 164 kts 309°
2026-05-06 14:16 -26.28638 -48.71174 1775 ft 158 kts 309°
2026-05-06 14:16 -26.27971 -48.72097 1576 ft 148 kts 309°
2026-05-06 14:17 -26.27356 -48.72950 1388 ft 136 kts 310°
2026-05-06 14:17 -26.26776 -48.73752 1207 ft 131 kts 310°
2026-05-06 14:17 -26.26204 -48.74538 1055 ft 130 kts 310°
2026-05-06 14:17 -26.25641 -48.75318 900 ft 129 kts 309°
2026-05-06 14:18 -26.25081 -48.76093 724 ft 128 kts 309°
2026-05-06 14:18 -26.24526 -48.76860 555 ft 127 kts 309°
2026-05-06 14:18 -26.23974 -48.77622 382 ft 125 kts 309°
2026-05-06 14:18 -26.23430 -48.78374 261 ft 124 kts 308°
2026-05-06 14:19 -26.22883 -48.79123 56 ft 124 kts 308°
2026-05-06 14:19 -26.22417 -48.79777 23 ft 79 kts 309°
2026-05-06 14:19 -26.22244 -48.80016 24 ft 12 kts 309°
2026-05-06 14:19 -26.22178 -48.80083 24 ft 13 kts 315°
2026-05-06 14:20 -26.22117 -48.80167 25 ft 15 kts 308°
2026-05-06 14:20 -26.22063 -48.80267 24 ft 16 kts 277°
2026-05-06 14:20 -26.22051 -48.80300 23 ft 1 kts 17°
2026-05-06 14:20 -26.22051 -48.80294 23 ft 2 kts 69°
2026-05-06 14:21 -26.22079 -48.80239 25 ft 13 kts 132°
2026-05-06 14:21 -26.22152 -48.80147 25 ft 18 kts 129°
2026-05-06 14:21 -26.22233 -48.80035 24 ft 18 kts 129°
2026-05-06 14:21 -26.22315 -48.80008 23 ft 14 kts 216°
2026-05-06 14:22 -26.22339 -48.80105 21 ft 13 kts 282°
2026-05-06 14:22 -26.22301 -48.80192 23 ft 12 kts 306°
2026-05-06 14:22 -26.22292 -48.80265 21 ft 9 kts 237°
2026-05-06 14:22 -26.22334 -48.80269 22 ft 4 kts 129°
2026-05-06 14:23 -26.22342 -48.80257 21 ft 1 kts 127°
2026-05-06 14:23 -26.22345 -48.80252 21 ft 1 kts 127°
2026-05-06 14:23 -26.22351 -48.80244 21 ft 1 kts 128°
2026-05-06 14:23 -26.22353 -48.80241 21 ft 0 kts 128°